Skip Page Navigation
NASA JPL Caltech
NASA Logo - Jet Propulsion Laboratory + View the NASA Portal
+ Center for Near-Earth Object Studies
JPL Home Earth Solar System Stars & Galaxies Technology
JPL Solar System Dynamics
BODIES ORBITS EPHEMERIDES TOOLS PHYSICAL DATA DISCOVERY FAQ SITE MAP
JPL Small-Body Database Browser
Search: [ help ]  
1640 Nemo (1951 QA)
Classification: Mars-crossing Asteroid          SPK-ID: 2001640
Ephemeris | Orbit Diagram | Orbital Elements | Mission Design | Physical Parameters | Discovery Circumstances | Close-Approach Data ]

[ show orbit diagram ]
Orbital Elements at Epoch 2459200.5 (2020-Dec-17.0) TDB
Reference: JPL 32 (heliocentric ecliptic J2000)
 Element Value Uncertainty (1-sigma)   Units 
e .342782895785253 3.6695e-08  
a 2.288776330050422 4.3161e-09 au
q 1.504222951830994 8.4356e-08 au
i 7.108890639671149 4.0946e-06 deg
node 355.4332866170016 2.7949e-05 deg
peri 354.7824197715127 2.8403e-05 deg
M 2.107373910274951 7.7644e-06 deg
tp 2459193.096406671892
(2020-Dec-09.59640667)
2.7264e-05 TDB
period 1264.746415016098
3.46
3.5775e-06
9.795e-09
d
yr
n .2846420402744672 8.0515e-10 deg/d
Q 3.073329708269849 5.7956e-09 au
  Orbit Determination Parameters
   # obs. used (total)      2534  
   data-arc span      41734 days (114.26 yr)  
   first obs. used      1906-10-17  
   last obs. used      2021-01-20  
   planetary ephem.      DE431  
   SB-pert. ephem.      SB431-N16  
   condition code      0  
   norm. resid. RMS      .46087  
   source      ORB  
   producer      Otto Matic  
   solution date      2021-Feb-24 00:57:01  

Additional Information
 Earth MOID = .496908 au 
 Jupiter MOID = 2.36386 au 
 T_jup = 3.510 
[ show covariance matrix ]

Ephemeris | Orbit Diagram | Orbital Elements | Mission Design | Physical Parameters | Discovery Circumstances | Close-Approach Data ]

Physical Parameter Table
Parameter Symbol Value Units Sigma Reference Notes
absolute magnitude H 13.32   n/a E2021B10  
rotation period rot_per 5.0 h n/a LCDB (Rev. 2020-October); Warner et al., 2009 Published Reference List:
[Wisniewski, W.Z.; Michalowski, T.M.; Harris, A.W.; McMillan, R.S. (1997) Icarus 126, 395-449; 1995, Lunar & Planetary Sci. XXVI, 1511-1512.]
SMASSII spectral type spec_B S   n/a EAR-A-5-DDR-TAXONOMY-V4.0 based on a high-resolution spectrum by Xu et al. (1995) or Bus and Binzel (2002)

1640 Nemo (1951 QA)          Discovered 1951-Aug-31 by Arend, S. at Uccle
Reference: DISCOVERY.DBLast Updated: 2003-08-29

[ show close-approach data ]
Alternate Designations
 1951 QA = A906 UA 
Ephemeris | Orbit Diagram | Orbital Elements | Mission Design | Physical Parameters | Discovery Circumstances | Close-Approach Data ]
ABOUT SSD CREDITS/AWARDS PRIVACY/COPYRIGHT GLOSSARY LINKS
FirstGov 2021-Mar-02 09:08 UT
(server date/time)  
NASA Home Page
Site Manager:   Ryan S. Park
Webmaster  Alan B. Chamberlin